Home > Weather > Valencia > Past weeks

Flag for Spain Weather for the Past 2 Weeks in Valencia, Spain

Now
66 °F

Passing clouds.


Feels Like: 66 °F
Forecast: 46 / 58 °F
Wind: 23 mph from West

Location: Valencia / Aeropuerto

Current Time: Feb 14, 2016 at 4:00:25 AM

Latest Report: Feb 14, 2016 at 3:30 AM


Visibility: N/A

Pressure: 29.53 "Hg

Humidity: 49%

Dew point: 46 °F

Location of ValenciaLocation

Historic Weather in Valencia — Graph

°F

Valencia Temperature Yesterday

Maximum temperature yesterday: 73 °F (at 1:00 PM)
Minimum temperature yesterday: 66 °F (at 4:30 AM)
Average temperature yesterday: 69 °F

High & Low Weather Summary for the Past Weeks

 TemperatureHumidityPressure
High73 °F (Feb 13, 1:00 PM)100% (Feb 3, 2:30 AM)30.63 "Hg (Feb 3, 2:30 AM)
Low36 °F (Feb 5, 7:30 AM)21% (Feb 3, 4:00 PM)29.53 "Hg (Feb 14, 1:30 AM)
Average59 °F60%30.16 "Hg
* Reported Jan 30 2:00 AM — Feb 14 2:30 AM, Valencia, Weather by CustomWeather, © 2016

Note: Actual official high and low records may vary slightly from our data, if they occured in-between our weather recording intervals... More about our weather records

Advertising

Valencia Weather History for the Previous 24 Hours

 ConditionsComfort  
Time TempWeatherWind HumidityBarometerVisibility
2:30 AM
Sun, Feb 14
66 °FPassing clouds.24 mph56%29.53 "HgN/A
2:00 AM68 °FPassing clouds.24 mph53%29.53 "HgN/A
1:30 AM68 °FPassing clouds.23 mph53%29.53 "HgN/A
1:00 AM68 °FPassing clouds.23 mph53%29.56 "HgN/A
12:30 AM68 °FPassing clouds.23 mph56%29.56 "HgN/A
12:00 AM68 °FPassing clouds.23 mph56%29.56 "HgN/A
11:30 PM
Sat, Feb 13
68 °FPassing clouds.25 mph56%29.59 "HgN/A
11:00 PM68 °FPassing clouds.28 mph56%29.59 "HgN/A
10:30 PM68 °FPassing clouds.24 mph56%29.62 "HgN/A
10:00 PM68 °FPassing clouds.25 mph56%29.62 "HgN/A
9:30 PM68 °FPassing clouds.25 mph56%29.62 "HgN/A
9:00 PM68 °FPassing clouds.24 mph56%29.62 "HgN/A
8:30 PM68 °FPassing clouds.22 mph56%29.62 "HgN/A
8:00 PM68 °FPassing clouds.20 mph60%29.65 "HgN/A
7:30 PM68 °FPassing clouds.20 mph56%29.65 "HgN/A
7:00 PM68 °FPassing clouds.18 mph56%29.65 "HgN/A
6:30 PM68 °FPartly sunny.14 mph56%29.68 "HgN/A
6:00 PM70 °FPartly sunny.10 mph53%29.68 "HgN/A
5:30 PM70 °FScattered clouds.20 mph53%29.68 "HgN/A
5:00 PM70 °FScattered clouds.28 mph53%29.68 "HgN/A
4:30 PM72 °FScattered clouds.26 mph50%29.68 "HgN/A
4:00 PM70 °FPassing clouds.23 mph53%29.68 "HgN/A
3:30 PM72 °FPassing clouds.23 mph50%29.68 "HgN/A
3:00 PM72 °FPassing clouds.24 mph50%29.68 "HgN/A
2:30 PM73 °FPassing clouds.23 mph47%29.68 "HgN/A
2:00 PM73 °FPassing clouds.26 mph44%29.68 "HgN/A
1:30 PM73 °FPassing clouds.28 mph44%29.71 "HgN/A
1:00 PM73 °FPassing clouds.24 mph47%29.71 "HgN/A
12:30 PM72 °FPassing clouds.26 mph50%29.74 "HgN/A
12:00 PM72 °FPassing clouds.17 mph50%29.74 "HgN/A
11:30 AM70 °FPassing clouds.20 mph53%29.71 "HgN/A
11:00 AM70 °FPassing clouds.10 mph53%29.74 "HgN/A
10:30 AM68 °FPassing clouds.14 mph56%29.71 "HgN/A
10:00 AM68 °FPassing clouds.10 mph60%29.71 "HgN/A
9:30 AM68 °FPassing clouds.15 mph56%29.74 "HgN/A
9:00 AM66 °FPassing clouds.14 mph60%29.71 "HgN/A
8:30 AM66 °FPassing clouds.15 mph60%29.71 "HgN/A
8:00 AM66 °FPassing clouds.17 mph64%29.71 "HgN/A
7:30 AM66 °FClear.16 mph60%29.71 "Hg10 mi
7:00 AM66 °FPassing clouds.15 mph64%29.71 "HgN/A
6:30 AM66 °FPassing clouds.12 mph64%29.68 "HgN/A
6:00 AM66 °FPassing clouds.16 mph64%29.68 "HgN/A
5:30 AM66 °FPassing clouds.16 mph64%29.68 "HgN/A
4:30 AM66 °FPassing clouds.13 mph64%29.68 "HgN/A
4:00 AM68 °FPassing clouds.16 mph60%29.68 "HgN/A
Weather by CustomWeather, © 2016

See weather overviewHow to use our weather pages